Temp
61 61 61 60 60 60 58 59 59 58 58 58 58 58 57 57 59 58 57 59 59 60 61 63 64 62 61 61 61 61 61 61 59 62 59 61 62 62 64 65 66 66 66
62 60 60 60 60 59 59 59 58 57 57 57 57 58 58 58 56 56 57 60 59 58 60 62 63 62 59 58 59 60 59 60 60 59 59 60 61 62 63 63 64 67 65
60 60 59 58 57 57 57 57 56 57 56 56 57 57 57 57 57 56 57 58 57 58 62 62 61 61 59 59 58 59 59 60 61 61 60 58 59 59 59 60 62 62 64
59 58 57 57 57 57 55 55 56 56 55 56 56 57 58 58 58 58 58 56 56 57 57 61 61 62 61 60 60 59 59 60 62 60 57 55 55 57 56 57 59 59 61
58 57 56 55 55 54 54 54 54 54 55 55 55 55 54 56 59 57 55 54 53 54 56 58 59 63 62 61 62 62 61 61 60 59 56 55 55 55 56 56 55 56 57
57 57 58 57 57 55 54 55 53 52 53 53 53 54 53 56 53 52 53 54 55 55 56 57 60 62 61 59 59 59 62 60 56 54 53 54 53 53 53 53 53 52 52
53 55 57 56 57 56 56 55 52 51 51 52 52 52 52 53 51 50 51 54 55 55 56 55 57 62 60 62 54 55 55 55 58 56 54 52 52 53 53 52 52 52 52
51 52 54 55 55 55 53 52 51 50 49 50 50 51 51 54 50 49 49 53 55 55 56 56 58 61 61 60 58 57 57 57 57 58 56 55 56 55 55 55 54 52 52
50 51 53 54 53 53 54 54 53 51 48 46 52 50 50 51 49 48 49 54 55 55 58 58 57 56 48 49 56 56 55 57 53 52 52 50 50 49 52 50 49 48 47
49 50 50 49 48 48 50 52 53 55 55 54 52 51 50 50 48 47 48 53 54 54 57 56 51 54 47 48 57 57 55 54 56 53 51 49 49 51 48 51 51 49 48
48 48 47 47 47 47 47 48 50 51 52 51 50 48 48 49 50 47 45 52 55 54 55 57 59 48 46 47 51 58 57 54 53 54 52 51 51 52 52 52 51 51 49
45 45 45 45 46 47 45 46 47 47 48 49 46 44 46 48 48 48 44 44 50 56 55 57 56 46 46 46 52 49 46 51 53 51 50 50 51 50 52 53 54 53 55
42 42 43 43 43 43 43 42 43 46 46 48 47 47 44 46 48 48 47 44 43 51 60 54 48 46 45 46 48 46 46 53 51 50 50 50 50 52 52 54 56 56 57
40 40 41 41 41 41 43 44 44 45 46 47 47 44 43 44 47 49 52 51 45 48 49 50 49 48 47 48 47 47 53 53 52 51 51 50 50 50 51 53 54 55 56
39 39 39 40 40 40 41 42 44 47 47 48 48 48 43 42 44 43 45 50 51 50 49 50 51 50 49 49 50 50 50 52 52 51 51 50 50 50 51 53 54 55 57
36 37 38 38 39 39 39 41 43 42 43 42 43 46 48 44 41 40 40 41 41 43 51 50 50 51 51 50 50 49 50 51 52 52 51 50 50 50 52 53 54 55 57
36 36 37 37 38 38 39 39 39 44 41 41 40 41 43 43 41 43 41 41 41 42 51 50 50 52 52 53 52 52 52 52 54 52 52 51 51 51 52 52 54 55 57
35 36 35 36 37 38 38 37 41 41 43 43 41 42 39 42 43 44 43 43 47 45 51 51 51 52 53 53 53 53 53 53 52 52 52 52 52 53 52 52 53 55 56
35 35 37 37 38 38 38 38 40 41 42 44 45 41 40 41 42 41 42 48 47 48 52 52 53 53 53 54 53 53 54 52 53 53 52 52 53 53 52 53 53 45 49
36 37 37 38 38 37 38 37 39 41 41 42 44 44 41 38 39 44 43 47 46 47 50 51 52 51 54 53 52 52 52 52 52 52 51 52 54 54 53 53 54 56 55
37 39 37 40 38 38 37 38 39 40 40 41 43 44 38 43 41 43 44 46 46 47 49 51 52 52 53 53 52 53 53 52 51 51 51 52 53 53 54 56 56 57 57
39 44 44 44 40 39 38 39 39 39 40 41 42 42 34 46 43 42 44 46 47 50 53 52 52 53 54 54 53 52 52 50 51 53 53 54 54 55 56 55 56 56 56
41 43 44 43 41 37 38 39 39 39 40 41 42 43 43 45 46 43 45 50 51 51 53 53 51 51 51 52 53 53 53 52 52 54 54 55 55 56 57 56 56 56 57
39 40 42 43 42 39 39 39 39 37 41 42 42 43 44 46 46 45 44 47 48 49 50 50 53 50 51 52 52 53 53 54 55 56 57 57 57 54 57 57 57 55 53
37 37 38 38 41 42 41 41 41 41 42 44 42 43 45 46 46 44 44 48 49 47 52 50 50 53 52 53 53 54 48 42 52 43 57 57 58 57 56 57 54 52 51
34 35 35 36 36 37 39 43 43 43 43 45 45 44 44 46 47 45 45 44 45 46 47 48 51 54 54 53 53 46 41 39 46 38 53 56 56 57 56 55 53 52 50
MSLP
1005.95 1006.09 1006.34 1006.50 1006.56 1006.57 1006.68 1006.61 1006.73 1006.80 1006.90 1007.10 1007.25 1007.34 1007.31 1007.18 1006.89 1006.72 1006.48 1006.10 1005.81 1005.42 1005.35 1005.44 1005.20 1005.16 1005.62 1006.34 1006.76 1007.07 1006.93 1007.72 1007.98 1007.72 1007.26 1006.98 1006.72 1006.83 1007.03 1006.82 1006.65 1006.79 1006.79
1005.15 1005.42 1005.75 1005.92 1005.87 1005.95 1005.88 1005.60 1005.62 1005.86 1005.96 1006.19 1006.28 1006.33 1006.46 1006.49 1006.44 1006.47 1006.23 1005.73 1005.52 1005.22 1004.96 1005.06 1004.88 1004.96 1005.68 1006.27 1006.39 1007.03 1007.64 1007.21 1007.58 1007.81 1007.21 1006.84 1006.85 1006.51 1006.64 1006.63 1006.20 1006.21 1006.48
1005.29 1005.32 1005.34 1005.32 1005.28 1005.28 1005.14 1004.84 1004.85 1005.05 1005.23 1005.41 1005.52 1005.71 1005.56 1005.69 1005.77 1005.79 1005.74 1005.51 1005.24 1005.01 1004.74 1004.66 1004.82 1004.90 1004.96 1005.10 1005.37 1005.34 1006.40 1006.57 1007.02 1007.03 1006.71 1006.73 1006.65 1006.26 1006.72 1006.60 1006.14 1006.15 1005.99
1005.58 1005.64 1005.46 1005.07 1004.82 1004.65 1004.44 1004.36 1004.24 1004.17 1004.32 1004.41 1004.62 1004.75 1004.94 1004.90 1004.87 1004.94 1004.83 1004.88 1004.64 1004.34 1004.20 1004.16 1003.99 1003.83 1003.75 1003.30 1004.06 1004.45 1005.39 1006.16 1006.18 1005.79 1005.99 1006.30 1006.30 1005.99 1006.41 1006.56 1006.48 1006.12 1005.97
1005.40 1005.38 1005.34 1005.15 1005.02 1004.91 1004.76 1004.30 1003.91 1003.80 1003.65 1003.55 1003.70 1003.83 1004.12 1004.36 1004.33 1004.29 1004.21 1004.08 1003.85 1003.50 1003.26 1003.08 1002.98 1002.30 1001.99 1001.90 1001.85 1002.80 1002.20 1003.50 1004.43 1004.60 1005.38 1005.98 1006.24 1005.77 1006.16 1006.27 1006.44 1006.26 1005.75
1005.08 1004.90 1004.57 1004.40 1004.18 1004.03 1003.87 1003.80 1003.72 1003.53 1003.20 1003.10 1003.10 1003.08 1003.07 1003.18 1003.18 1003.22 1003.11 1002.98 1002.68 1002.04 1000.85 1000.43 1000.22 1000.32 1000.08 1000.65 1000.90 1000.78 1001.06 1002.06 1003.10 1004.00 1004.90 1005.15 1005.48 1005.76 1005.94 1006.27 1006.33 1006.46 1006.50
1005.16 1004.77 1004.38 1004.02 1003.74 1003.49 1003.21 1003.04 1002.84 1002.63 1002.48 1002.40 1002.35 1002.34 1002.21 1002.24 1002.17 1002.13 1002.05 1001.70 1001.35 1000.46 999.53 998.52 996.57 997.20 998.31 998.83 1000.21 1000.56 1001.27 1001.16 1001.76 1002.72 1003.79 1004.57 1004.97 1005.33 1005.69 1006.35 1006.41 1006.48 1006.40
1005.29 1004.82 1004.34 1003.85 1003.48 1003.21 1002.96 1002.68 1002.37 1002.12 1002.05 1002.00 1001.81 1001.67 1001.47 1001.40 1001.16 1001.02 1000.94 1000.61 1000.29 999.53 998.41 995.84 994.24 995.98 997.36 998.15 999.17 1000.60 1001.07 1001.69 1001.94 1002.44 1003.06 1003.42 1004.02 1004.71 1005.22 1005.49 1005.90 1006.18 1006.19
1004.78 1004.20 1003.72 1003.31 1002.85 1002.48 1002.08 1001.86 1001.70 1001.42 1001.18 1001.17 1001.06 1000.93 1000.82 1000.62 1000.56 1000.38 1000.16 999.95 999.63 998.94 998.23 996.18 996.14 996.63 996.64 998.05 999.60 1000.49 1001.57 1001.79 1001.87 1002.26 1002.71 1003.27 1003.92 1004.68 1004.94 1005.48 1005.81 1006.42 1006.24
1003.98 1003.47 1003.20 1002.96 1002.64 1002.22 1001.82 1001.34 1000.88 1000.57 1000.07 1000.01 1000.11 1000.18 999.98 999.76 999.80 999.63 999.60 999.54 999.23 998.78 998.42 997.60 996.29 996.82 998.36 999.26 999.90 1000.36 1001.38 1001.97 1002.30 1003.12 1003.49 1003.85 1004.28 1004.38 1004.44 1004.59 1005.03 1005.62 1005.59
1003.61 1003.16 1002.77 1002.47 1002.06 1001.69 1001.25 1000.81 1000.32 999.93 999.69 999.38 999.25 999.29 999.24 999.12 999.08 998.81 999.03 999.15 998.69 998.41 997.80 998.06 997.96 998.08 998.78 998.95 999.44 1000.19 1000.96 1001.83 1002.68 1003.12 1003.90 1004.32 1004.17 1003.95 1003.98 1004.03 1004.01 1004.32 1004.79
1003.19 1002.62 1002.16 1001.84 1001.52 1001.14 1000.72 1000.06 999.62 999.34 998.89 998.64 998.69 998.72 998.48 998.45 998.48 998.21 998.29 998.56 998.12 998.35 997.86 997.55 997.40 997.99 998.68 999.38 999.62 1000.14 1000.92 1001.74 1002.71 1003.13 1003.76 1003.90 1003.60 1003.45 1003.32 1003.11 1003.17 1003.38 1003.43
1002.56 1001.99 1001.55 1001.20 1000.92 1000.61 1000.10 999.56 999.03 998.44 998.13 997.84 997.98 998.03 998.01 997.89 997.98 997.58 997.14 997.46 997.87 998.23 997.88 997.67 997.44 998.03 998.71 999.50 999.50 1000.40 1001.12 1001.68 1002.63 1003.33 1003.36 1003.30 1003.60 1003.04 1002.92 1002.89 1002.84 1003.09 1002.98
1001.92 1001.31 1000.88 1000.46 1000.04 999.89 999.38 998.86 998.23 997.83 997.46 997.28 997.37 997.42 997.49 997.61 997.64 997.66 997.48 997.36 997.62 997.82 997.74 997.92 997.90 998.17 998.74 999.65 1000.34 1000.98 1001.04 1001.44 1002.03 1002.50 1002.91 1002.86 1003.24 1002.66 1002.65 1002.51 1002.62 1002.64 1002.27
1001.24 1000.57 1000.03 999.64 999.22 998.95 998.57 998.06 997.45 996.99 996.69 996.62 996.72 996.79 997.06 997.36 997.60 997.51 997.11 996.61 997.22 997.12 997.54 997.84 998.07 998.65 999.24 999.85 1000.44 1000.93 1001.19 1001.44 1001.85 1002.03 1002.08 1002.27 1002.24 1002.16 1001.76 1001.78 1002.14 1002.11 1001.80
1000.51 999.88 999.28 998.89 998.38 998.02 997.74 997.13 996.60 996.31 996.19 996.26 996.41 996.53 996.61 996.62 997.30 997.44 997.31 996.60 996.77 997.24 997.49 997.76 997.98 998.36 998.68 999.18 999.69 1000.36 1000.81 1001.01 1000.97 1001.15 1001.08 1001.63 1001.86 1001.62 1001.44 1001.64 1001.93 1001.88 1001.60
1000.01 999.32 998.65 998.07 997.51 997.16 997.00 996.58 996.12 995.48 995.42 995.71 996.13 996.33 996.58 996.84 997.00 996.75 997.12 996.90 996.90 997.27 997.22 997.29 997.59 997.80 998.25 998.71 999.12 999.69 999.96 999.72 999.72 1000.36 1000.73 1001.15 1001.06 1001.02 1001.31 1001.56 1001.68 1001.59 1001.66
999.38 998.50 997.87 997.14 996.72 996.34 996.27 996.34 995.67 995.55 995.30 995.45 995.69 995.98 996.21 996.55 996.62 996.37 996.47 996.65 996.98 997.20 996.76 997.15 997.24 997.53 997.70 997.94 998.78 998.98 999.01 999.43 999.61 1000.13 1000.26 1000.31 1000.34 1000.62 1000.98 1001.38 1001.46 1001.41 1001.51
998.28 997.27 996.60 996.15 995.78 995.63 995.62 995.65 995.34 995.09 995.05 995.16 995.38 995.67 995.84 996.04 996.25 996.21 996.48 996.66 996.59 996.35 996.26 996.61 996.61 996.82 997.12 997.81 998.32 998.46 998.77 999.23 999.86 999.79 999.68 999.78 999.97 1000.30 1000.64 1000.96 1001.16 1001.31 1001.24
997.18 996.13 995.62 995.11 994.77 994.88 994.98 995.14 994.94 994.72 994.88 994.91 995.10 995.22 995.69 996.14 996.45 996.35 996.22 996.22 996.21 996.16 996.02 996.01 996.28 996.57 996.95 997.48 997.96 998.44 998.66 999.40 999.32 998.92 999.10 999.32 999.62 999.98 1000.33 1000.63 1000.70 1000.82 1000.93
996.59 995.29 994.52 993.90 993.97 994.18 994.46 994.65 994.58 994.63 994.80 994.69 994.62 994.69 994.92 995.32 995.60 995.64 995.74 996.01 996.26 996.15 996.03 996.20 996.40 996.50 996.72 997.32 997.43 998.02 998.50 998.84 998.67 998.77 998.81 998.84 999.23 999.60 999.95 1000.21 1000.24 1000.30 1000.45
996.09 994.71 994.03 993.48 993.57 993.98 994.30 994.40 994.50 994.60 994.77 994.82 994.75 994.82 994.86 994.95 995.30 995.38 995.47 995.55 995.61 995.64 995.72 995.88 995.92 996.16 996.08 996.61 997.22 997.87 998.26 998.50 998.54 998.62 998.65 998.82 999.19 999.48 999.67 999.78 999.86 1000.01 1000.23
996.04 995.09 994.54 994.24 994.17 994.39 994.49 994.53 994.65 994.83 994.93 994.96 994.88 994.81 994.96 994.95 995.07 995.29 995.32 995.16 995.21 995.42 995.58 995.76 995.78 996.09 996.26 996.39 996.86 997.46 998.00 998.08 998.19 998.35 998.71 998.83 998.99 999.14 999.18 999.28 999.26 999.49 999.62
996.76 995.96 995.30 994.88 994.79 994.81 994.80 994.80 994.84 994.90 994.88 994.90 994.98 994.88 994.95 994.94 995.09 995.20 995.22 995.18 995.07 995.28 995.60 995.83 995.82 996.24 996.22 996.32 997.13 997.62 997.66 997.83 997.93 998.10 998.37 998.66 998.71 998.73 998.72 998.71 998.50 998.54 999.24
997.64 996.92 996.36 995.89 995.42 995.17 995.08 995.10 995.06 995.08 995.02 994.88 994.95 995.07 995.17 995.29 995.33 995.40 995.38 995.05 995.11 995.70 995.82 995.80 995.98 996.32 996.54 996.61 997.29 997.62 997.72 997.90 997.99 998.13 998.38 998.54 998.60 998.62 998.62 998.80 998.70 999.39 999.83
998.85 998.14 997.59 997.13 996.63 996.09 995.76 995.39 995.29 995.14 995.12 995.05 995.05 995.18 995.31 995.36 995.45 995.57 995.73 995.81 995.63 995.66 995.89 995.90 996.09 996.16 996.28 996.65 997.01 997.38 997.48 997.68 998.07 998.20 998.28 998.40 998.48 998.54 998.60 998.84 999.10 999.62 1000.45
Wind_Speed
8 8 8 7 7 7 7 7 6 4 5 4 5 5 5 5 5 5 6 8 10 8 7 8 12 7 6 4 1 1 3 4 2 14 3 6 5 5 4 4 5 6 5
10 7 8 8 8 8 7 8 7 7 5 6 6 5 5 6 6 7 7 5 8 9 12 13 12 6 4 4 5 10 4 9 6 17 4 4 5 4 3 5 4 3 4
5 7 8 9 8 9 9 8 7 7 7 5 6 6 5 6 6 7 9 10 6 5 7 7 7 9 8 5 5 6 12 10 13 9 7 4 4 3 4 3 2 4 3
5 6 7 8 9 10 8 8 7 8 7 6 7 6 6 6 6 7 7 7 9 9 7 9 15 17 16 14 18 17 14 11 10 8 4 4 3 3 2 2 2 1 2
5 4 7 8 7 7 7 8 8 8 8 7 6 6 7 6 6 8 6 8 10 11 11 13 18 23 28 24 15 19 14 12 8 5 3 4 3 2 3 1 1 2 2
7 8 8 7 7 8 9 10 9 9 7 6 6 6 6 5 10 12 10 8 11 12 12 15 15 30 31 28 24 11 11 11 7 5 4 4 4 3 1 1 0 2 3
6 7 7 7 9 9 9 8 8 8 7 7 7 6 7 7 12 15 16 8 11 11 15 20 20 22 24 16 7 13 13 13 14 8 7 5 4 6 5 3 3 3 3
7 9 9 10 10 8 7 8 8 6 7 7 7 7 7 8 14 17 17 10 9 10 14 24 12 17 16 13 10 10 8 7 8 5 7 7 5 6 5 5 4 2 3
12 13 14 14 15 15 15 14 10 8 6 6 8 7 7 7 12 16 14 9 7 9 13 15 7 8 15 17 12 12 8 5 5 8 7 8 8 9 6 4 2 3 3
16 14 12 13 15 16 17 16 15 15 17 14 15 12 10 7 9 14 13 6 8 6 7 7 7 10 16 17 14 12 10 6 6 5 2 1 6 6 8 6 4 4 3
13 14 14 13 15 14 14 13 14 14 12 11 10 8 8 7 8 12 11 7 8 5 6 6 8 15 17 12 13 10 9 8 6 6 5 4 3 4 3 5 6 5 4
14 14 14 14 12 12 15 13 12 13 14 11 10 6 5 6 9 11 11 9 9 7 7 4 4 16 15 14 12 12 14 9 5 5 3 3 3 2 4 3 5 5 6
15 15 14 13 13 13 14 12 12 11 10 9 7 6 4 4 5 11 6 5 10 8 9 8 9 14 14 10 12 13 11 5 5 3 4 3 3 4 3 2 3 6 9
15 15 13 13 12 12 10 10 9 8 8 6 6 5 5 4 3 3 3 4 10 10 5 5 7 9 7 8 7 5 4 6 6 4 4 3 4 2 3 4 2 3 4
15 14 13 11 11 10 10 9 10 9 7 8 5 4 4 3 2 0 1 5 2 5 5 3 4 4 5 4 4 6 4 4 5 5 3 4 3 2 2 2 1 3 4
14 11 10 9 9 8 8 8 13 15 10 8 6 5 0 8 11 6 6 7 2 11 4 3 3 5 6 5 4 4 4 7 5 4 3 2 4 3 1 1 1 3 1
13 13 11 11 9 8 7 7 8 6 12 11 10 7 7 7 7 2 7 6 4 9 4 4 4 5 4 5 5 5 5 6 5 4 3 4 4 2 3 2 2 1 1
14 21 12 10 9 8 6 7 6 7 5 3 5 6 9 11 10 6 4 2 1 2 5 5 5 5 5 5 5 4 3 3 3 3 3 3 3 4 3 3 4 3 3
13 11 10 8 7 8 6 6 8 5 3 2 2 3 7 13 13 10 8 3 1 1 3 5 5 5 4 5 5 4 4 3 4 3 2 2 3 3 3 4 3 4 4
12 18 15 9 7 5 5 5 6 5 1 4 5 4 4 4 4 4 4 3 2 2 1 1 3 4 5 5 5 4 4 4 2 2 2 2 3 4 4 4 4 3 3
10 11 10 7 5 5 4 4 4 4 4 3 2 3 7 6 6 6 5 4 4 4 3 2 4 5 5 6 5 5 3 2 2 2 3 3 3 3 3 4 3 3 3
9 8 6 7 3 3 3 3 4 3 3 3 2 1 5 2 5 4 4 4 4 4 3 2 4 5 6 6 5 5 4 1 1 2 2 1 1 2 3 3 3 3 4
8 9 7 7 4 4 2 2 3 3 3 2 1 0 3 3 3 4 4 5 4 4 3 2 3 3 2 5 5 5 5 3 3 2 1 0 2 3 4 3 4 5 5
9 9 9 5 5 3 2 2 3 2 2 4 4 2 0 1 3 3 3 4 3 3 3 3 4 5 5 6 5 4 4 3 3 3 2 2 3 4 3 3 4 4 10
10 9 9 9 8 2 2 3 3 3 3 2 3 4 3 3 1 2 2 3 2 3 4 5 4 6 6 9 7 5 4 5 3 3 1 2 4 4 2 2 7 7 10
11 11 9 9 9 9 8 4 2 3 3 2 2 2 3 3 3 2 3 2 1 0 3 3 5 8 7 4 3 3 2 1 1 3 2 3 4 3 2 4 11 9 9
Wind_Direction
201 203 203 210 222 220 218 220 228 203 207 200 197 213 247 255 277 271 255 258 266 263 259 244 239 177 173 127 161 137 54 231 196 275 280 236 209 203 227 204 202 231 251
208 198 206 215 214 222 225 226 221 223 211 202 215 215 242 255 249 248 262 259 238 248 255 245 220 183 178 181 187 200 227 203 212 268 253 239 210 210 212 227 234 236 239
224 212 219 217 213 220 224 226 227 230 232 205 219 224 230 239 237 233 242 258 239 238 262 248 247 213 195 195 240 205 210 218 224 231 224 223 222 184 238 281 252 252 221
312 291 273 247 228 226 226 228 232 233 233 226 222 232 241 268 255 249 241 241 234 242 235 248 239 225 229 212 221 221 193 216 218 213 181 201 207 232 168 180 300 282 306
322 299 269 272 272 274 269 249 241 237 237 229 221 219 218 225 238 244 225 235 240 236 230 250 252 233 213 218 206 222 185 193 195 178 166 188 179 135 179 152 187 290 324
291 279 274 263 249 240 241 240 240 249 254 248 238 234 247 246 250 250 228 242 245 254 270 270 263 223 208 205 214 179 180 173 160 149 182 168 165 155 97 80 40 37 330
312 303 293 280 273 260 255 251 244 238 232 230 232 225 236 241 257 265 249 246 261 273 285 277 270 207 202 190 150 166 182 172 171 162 151 167 140 180 148 163 235 189 220
299 293 291 290 289 290 275 254 245 236 237 244 242 228 231 246 249 257 257 249 264 281 286 305 192 186 172 152 139 155 147 166 152 141 149 156 159 162 172 169 191 267 305
291 289 287 284 280 275 270 265 254 248 244 231 250 249 239 247 248 257 258 252 263 291 300 292 92 134 107 126 146 149 156 161 135 141 146 146 171 185 170 118 244 158 293
295 298 307 304 297 291 287 286 280 274 275 263 265 249 223 238 248 266 254 242 253 280 290 245 200 147 153 162 161 146 143 173 138 116 98 195 196 211 191 193 170 212 167
296 294 289 287 285 285 286 280 272 269 275 264 241 230 222 233 246 257 240 244 253 257 288 185 188 157 161 146 132 146 158 143 158 143 150 188 210 223 244 205 198 177 174
292 290 290 289 289 288 281 277 280 276 263 261 241 228 226 238 240 253 227 232 232 259 262 268 157 152 159 148 145 161 144 139 140 137 169 225 232 260 259 248 247 212 222
296 291 290 288 285 282 278 276 272 260 270 237 228 216 227 241 245 250 193 321 266 237 245 224 184 170 162 154 161 148 145 127 139 159 197 218 210 223 229 250 237 244 242
291 289 287 283 280 281 271 269 271 265 256 237 207 201 228 240 229 234 211 143 217 213 226 172 187 154 118 119 90 140 182 156 169 181 203 205 230 195 203 177 210 257 262
288 284 280 274 269 272 269 267 263 260 251 227 197 198 219 199 209 264 323 95 229 205 149 130 124 129 127 141 150 164 182 171 191 193 195 216 256 222 255 144 223 278 254
289 288 280 276 270 261 273 274 257 245 219 251 197 184 230 140 169 169 112 56 26 170 163 155 145 156 146 159 165 162 177 201 199 198 203 210 247 236 243 114 225 255 252
287 289 284 279 271 261 261 260 272 275 231 210 180 190 178 179 192 107 107 86 278 166 163 159 154 160 154 153 157 177 184 198 184 197 190 220 231 234 151 176 242 232 126
287 282 275 272 268 262 242 261 252 244 227 201 213 197 194 199 203 233 142 121 124 192 163 177 171 167 171 151 178 193 189 189 198 202 206 236 215 174 146 206 225 192 177
288 280 271 265 257 261 233 239 262 245 269 182 169 188 200 201 201 209 197 177 199 337 178 168 179 164 163 173 193 197 181 174 202 179 182 167 181 166 198 219 219 221 202
292 280 268 258 246 238 224 229 252 190 268 214 211 198 122 121 174 190 195 172 239 278 233 210 169 164 170 167 157 156 148 178 186 60 359 256 216 181 210 225 218 185 197
297 294 281 259 222 206 209 211 233 192 215 292 193 202 167 159 187 200 194 184 184 221 221 231 178 165 154 153 141 140 129 115 69 348 299 281 201 190 198 235 215 205 171
303 316 346 342 153 172 182 203 189 174 192 234 273 60 162 149 170 183 195 203 191 200 197 268 186 164 162 148 144 138 116 108 278 290 286 250 132 222 242 232 204 187 185
335 349 23 29 40 72 103 142 148 159 184 211 245 252 182 174 169 175 197 216 184 185 195 238 160 141 162 129 128 127 134 152 196 163 135 258 215 245 250 232 218 213 219
355 2 8 27 47 55 68 105 124 144 183 163 180 204 249 132 164 201 222 207 206 157 178 173 110 127 133 111 117 127 129 127 89 83 118 241 280 281 277 259 251 142 126
3 8 13 9 6 56 137 128 142 170 191 191 179 192 194 212 240 254 252 298 237 158 197 173 140 152 160 139 145 144 160 147 88 48 116 267 289 265 273 250 113 109 125
12 11 14 15 14 12 12 22 140 164 179 205 178 168 166 202 203 233 162 160 44 257 176 170 179 195 204 195 168 135 108 114 223 219 222 236 248 228 191 145 135 134 129